Overview Statistics Trail Chart Weather Telemetry Raw packets
 

This is the latest recevied weather packets stored in our database for station/object KN1OBI-13. If no packets are shown the sender has not sent any weather packets the latest 10 day(s).

<< 27 28 29 30 31 32 33 >>
Time Temp. Humidity Pressure Rain* Wind** Luminosity Snow
1788209791 24.44° C 68% 998.1 hPa 0 mm - - -
1788209191 24.44° C 63% 998.4 hPa 0 mm - - -
1788208592 25° C 61% 998.3 hPa 0 mm - - -
1788207991 25° C 63% 998.4 hPa 0 mm - - -
1788207391 24.44° C 65% 998.2 hPa 0 mm - - -
1788206791 25° C 60% 998.3 hPa 0 mm - - -
1788206191 25.56° C 61% 998.3 hPa 0 mm - - -
1788205592 25.56° C 59% 998.3 hPa 0 mm - - -
1788204991 24.44° C 60% 998.5 hPa 0 mm - - -
1788204391 24.44° C 61% 998.6 hPa 0 mm - - -
1788203791 25.56° C 58% 998.9 hPa 0 mm - - -
1788203191 25.56° C 58% 999 hPa 0 mm - - -
1788202591 25.56° C 59% 999 hPa 0 mm - - -
1788201991 25.56° C 58% 999.1 hPa 0 mm - - -
1788201391 25° C 59% 998.9 hPa 0 mm - - -
1788200791 25° C 61% 999.1 hPa 0 mm - - -
1788200191 25° C 56% 999.4 hPa 0 mm - - -
1788199591 24.44° C 59% 999.4 hPa 0 mm - - -
1788198991 23.89° C 60% 999.2 hPa 0 mm - - -
1788198391 23.89° C 60% 999.5 hPa 0 mm - - -
1788197801 23.33° C 59% 999.4 hPa 0 mm - - -
1788197191 23.33° C 63% 999.8 hPa 0 mm - - -
1788196591 23.33° C 64% 999.8 hPa 0 mm - - -
1788195991 22.78° C 65% 999.8 hPa 0 mm - - -
1788195391 22.78° C 67% 1000 hPa 0 mm - - -

* Rain latest hour (hover to see other rain measurements)
** Current wind speed in m/s (hover to see current wind gust speed)